Time,TemperatureF,DewpointF,PressureIn,WindDirection,WindDirectionDegrees,WindSpeedMPH,WindSpeedGustMPH,Humidity,HourlyPrecipIn,Conditions,Clouds,dailyrainin,SolarRadiationWatts/m^2,SoftwareType,DateUTC
2013-10-12 00:04:00,57.0,48.0,-100.00,SSE,154,2.0,5.0,72,0.00,,,1.77,0.000000,,2013-10-12 04:04:00,
2013-10-12 00:44:00,56.0,52.0,-100.00,ENE,76,1.0,3.0,87,0.00,,,1.63,0.000000,,2013-10-12 04:44:00,
2013-10-12 00:54:00,56.0,52.0,-100.00,ENE,76,1.0,3.0,87,0.00,,,1.63,0.000000,,2013-10-12 04:54:00,
2013-10-12 01:03:00,56.0,52.0,-100.00,ENE,76,1.0,3.0,87,0.00,,,1.63,0.000000,,2013-10-12 05:03:00,
2013-10-12 01:43:00,57.0,54.0,-100.00,East,101,3.0,6.0,90,0.00,,,1.49,0.000000,,2013-10-12 05:43:00,
2013-10-12 01:52:00,57.0,54.0,-100.00,East,101,3.0,6.0,90,0.00,,,1.49,0.000000,,2013-10-12 05:52:00,
2013-10-12 02:02:00,57.0,54.0,-100.00,East,101,3.0,6.0,90,0.00,,,1.49,0.000000,,2013-10-12 06:02:00,
2013-10-12 02:42:00,55.0,52.0,-100.00,ENE,71,1.0,4.0,91,0.00,,,1.18,0.000000,,2013-10-12 06:42:00,
2013-10-12 02:52:00,55.0,52.0,-100.00,ENE,71,1.0,4.0,91,0.00,,,1.18,0.000000,,2013-10-12 06:52:00,
2013-10-12 03:03:00,55.0,52.0,-100.00,ENE,71,1.0,4.0,91,0.00,,,1.18,0.000000,,2013-10-12 07:03:00,
2013-10-12 03:42:00,55.0,52.0,-100.00,ENE,67,2.0,4.0,91,0.00,,,0.89,0.000000,,2013-10-12 07:42:00,
2013-10-12 03:52:00,55.0,52.0,-100.00,ENE,67,2.0,4.0,91,0.00,,,0.89,0.000000,,2013-10-12 07:52:00,
2013-10-12 04:02:00,55.0,52.0,-100.00,ENE,67,2.0,4.0,91,0.00,,,0.89,0.000000,,2013-10-12 08:02:00,
2013-10-12 04:43:00,54.0,52.0,-100.00,NE,40,2.0,3.0,94,0.00,,,0.60,0.000000,,2013-10-12 08:43:00,
2013-10-12 04:52:00,54.0,52.0,-100.00,NE,40,2.0,3.0,94,0.00,,,0.60,0.000000,,2013-10-12 08:52:00,
2013-10-12 05:02:00,54.0,52.0,-100.00,NE,40,2.0,3.0,94,0.00,,,0.60,0.000000,,2013-10-12 09:02:00,
2013-10-12 05:43:00,52.0,51.0,-100.00,ENE,63,1.0,3.0,97,0.00,,,0.39,0.000000,,2013-10-12 09:43:00,
2013-10-12 05:54:00,52.0,51.0,-100.00,ENE,63,1.0,3.0,97,0.00,,,0.39,0.000000,,2013-10-12 09:54:00,
2013-10-12 06:03:00,52.0,51.0,-100.00,ENE,63,1.0,3.0,97,0.00,,,0.39,0.000000,,2013-10-12 10:03:00,
2013-10-12 06:42:00,53.0,52.0,-100.00,ESE,104,2.0,3.0,95,0.00,,,0.36,0.000000,,2013-10-12 10:42:00,
2013-10-12 06:53:00,53.0,52.0,-100.00,ESE,104,2.0,3.0,95,0.00,,,0.36,0.000000,,2013-10-12 10:53:00,
2013-10-12 07:02:00,53.0,52.0,-100.00,ESE,104,2.0,3.0,95,0.00,,,0.36,0.000000,,2013-10-12 11:02:00,
2013-10-12 07:43:00,51.0,48.0,-100.00,NW,312,0.0,3.0,88,0.00,,,0.28,0.000000,,2013-10-12 11:43:00,
2013-10-12 07:52:00,51.0,48.0,-100.00,NW,312,0.0,3.0,88,0.00,,,0.28,0.000000,,2013-10-12 11:52:00,
2013-10-12 08:01:00,51.0,48.0,-100.00,NW,312,0.0,3.0,88,0.00,,,0.28,0.000000,,2013-10-12 12:01:00,
2013-10-12 08:42:00,50.0,45.0,-100.00,North,349,0.0,2.0,84,0.00,,,0.18,10.000000,,2013-10-12 12:42:00,
2013-10-12 08:52:00,50.0,45.0,-100.00,North,349,0.0,2.0,84,0.00,,,0.18,10.000000,,2013-10-12 12:52:00,
2013-10-12 09:02:00,50.0,45.0,-100.00,North,349,0.0,2.0,84,0.00,,,0.18,10.000000,,2013-10-12 13:02:00,
2013-10-12 09:42:00,55.0,48.0,-100.00,SE,135,1.0,4.0,77,0.00,,,0.11,80.000000,,2013-10-12 13:42:00,
2013-10-12 09:52:00,55.0,48.0,-100.00,SE,135,1.0,4.0,77,0.00,,,0.11,80.000000,,2013-10-12 13:52:00,
2013-10-12 10:02:00,55.0,48.0,-100.00,SE,135,1.0,4.0,77,0.00,,,0.11,80.000000,,2013-10-12 14:02:00,
2013-10-12 10:42:00,59.0,42.0,-100.00,SSE,155,3.0,5.0,54,0.00,,,0.02,137.000000,,2013-10-12 14:42:00,
2013-10-12 10:52:00,59.0,42.0,-100.00,SSE,155,3.0,5.0,54,0.00,,,0.02,137.000000,,2013-10-12 14:52:00,
2013-10-12 11:02:00,59.0,42.0,-100.00,SSE,155,3.0,5.0,54,0.00,,,0.02,137.000000,,2013-10-12 15:02:00,
2013-10-12 11:44:00,61.0,37.0,-100.00,SSE,147,2.0,7.0,41,0.00,,,0.00,192.000000,,2013-10-12 15:44:00,
2013-10-12 11:54:00,61.0,37.0,-100.00,SSE,147,2.0,7.0,41,0.00,,,0.00,192.000000,,2013-10-12 15:54:00,
2013-10-12 12:03:00,61.0,37.0,-100.00,SSE,147,2.0,7.0,41,0.00,,,0.00,192.000000,,2013-10-12 16:03:00,
2013-10-12 12:43:00,63.0,34.0,-100.00,SE,128,4.0,9.0,34,0.00,,,0.00,254.000000,,2013-10-12 16:43:00,
2013-10-12 12:53:00,63.0,34.0,-100.00,SE,128,4.0,9.0,34,0.00,,,0.00,254.000000,,2013-10-12 16:53:00,
2013-10-12 13:03:00,63.0,34.0,-100.00,SE,128,4.0,9.0,34,0.00,,,0.00,254.000000,,2013-10-12 17:03:00,
2013-10-12 13:42:00,66.0,34.0,-100.00,ESE,104,5.0,11.0,30,0.00,,,0.00,399.000000,,2013-10-12 17:42:00,
2013-10-12 13:53:00,66.0,34.0,-100.00,ESE,104,5.0,11.0,30,0.00,,,0.00,399.000000,,2013-10-12 17:53:00,
2013-10-12 14:03:00,66.0,34.0,-100.00,ESE,104,5.0,11.0,30,0.00,,,0.00,399.000000,,2013-10-12 18:03:00,
2013-10-12 14:42:00,70.0,35.0,-100.00,SE,144,4.0,11.0,28,0.00,,,0.00,600.000000,,2013-10-12 18:42:00,
2013-10-12 14:52:00,70.0,35.0,-100.00,SE,144,4.0,11.0,28,0.00,,,0.00,600.000000,,2013-10-12 18:52:00,
2013-10-12 15:01:00,70.0,35.0,-100.00,SE,144,4.0,11.0,28,0.00,,,0.00,600.000000,,2013-10-12 19:01:00,
2013-10-12 15:42:00,71.0,34.0,-100.00,SE,131,4.0,10.0,26,0.00,,,0.00,552.000000,,2013-10-12 19:42:00,
2013-10-12 15:52:00,71.0,34.0,-100.00,SE,131,4.0,10.0,26,0.00,,,0.00,552.000000,,2013-10-12 19:52:00,
2013-10-12 16:03:00,71.0,34.0,-100.00,SE,131,4.0,10.0,26,0.00,,,0.00,552.000000,,2013-10-12 20:03:00,
2013-10-12 16:43:00,71.0,34.0,-100.00,ESE,120,4.0,10.0,26,0.00,,,0.00,443.000000,,2013-10-12 20:43:00,
2013-10-12 16:52:00,71.0,34.0,-100.00,ESE,120,4.0,10.0,26,0.00,,,0.00,443.000000,,2013-10-12 20:52:00,
2013-10-12 17:02:00,71.0,34.0,-100.00,ESE,120,4.0,10.0,26,0.00,,,0.00,443.000000,,2013-10-12 21:02:00,
2013-10-12 17:43:00,68.0,32.0,-100.00,ESE,108,3.0,12.0,26,0.00,,,0.00,257.000000,,2013-10-12 21:43:00,
2013-10-12 17:54:00,68.0,32.0,-100.00,ESE,108,3.0,12.0,26,0.00,,,0.00,257.000000,,2013-10-12 21:54:00,
2013-10-12 18:04:00,68.0,32.0,-100.00,ESE,108,3.0,12.0,26,0.00,,,0.00,257.000000,,2013-10-12 22:04:00,
2013-10-12 18:43:00,64.0,34.0,-100.00,ENE,69,1.0,8.0,33,0.00,,,0.00,22.000000,,2013-10-12 22:43:00,
2013-10-12 18:54:00,64.0,34.0,-100.00,ENE,69,1.0,8.0,33,0.00,,,0.00,22.000000,,2013-10-12 22:54:00,
2013-10-12 19:02:00,64.0,34.0,-100.00,ENE,69,1.0,8.0,33,0.00,,,0.00,22.000000,,2013-10-12 23:02:00,
2013-10-12 19:42:00,60.0,39.0,-100.00,ENE,63,2.0,7.0,46,0.00,,,0.00,4.000000,,2013-10-12 23:42:00,
2013-10-12 19:52:00,60.0,39.0,-100.00,ENE,63,2.0,7.0,46,0.00,,,0.00,4.000000,,2013-10-12 23:52:00,
2013-10-12 20:01:00,60.0,39.0,-100.00,ENE,63,2.0,7.0,46,0.00,,,0.00,4.000000,,2013-10-13 00:01:00,
2013-10-12 20:42:00,58.0,40.0,-100.00,East,98,2.0,4.0,52,0.00,,,0.00,0.000000,,2013-10-13 00:42:00,
2013-10-12 20:52:00,58.0,40.0,-100.00,East,98,2.0,4.0,52,0.00,,,0.00,0.000000,,2013-10-13 00:52:00,
2013-10-12 21:01:00,58.0,40.0,-100.00,East,98,2.0,4.0,52,0.00,,,0.00,0.000000,,2013-10-13 01:01:00,
2013-10-12 21:42:00,58.0,41.0,-100.00,ESE,121,4.0,7.0,54,0.00,,,0.00,0.000000,,2013-10-13 01:42:00,
2013-10-12 21:52:00,58.0,41.0,-100.00,ESE,121,4.0,7.0,54,0.00,,,0.00,0.000000,,2013-10-13 01:52:00,
2013-10-12 22:02:00,58.0,41.0,-100.00,ESE,121,4.0,7.0,54,0.00,,,0.00,0.000000,,2013-10-13 02:02:00,
2013-10-12 22:43:00,58.0,38.0,-100.00,SE,125,4.0,10.0,48,0.00,,,0.00,0.000000,,2013-10-13 02:43:00,
2013-10-12 22:52:00,58.0,38.0,-100.00,SE,125,4.0,10.0,48,0.00,,,0.00,0.000000,,2013-10-13 02:52:00,
2013-10-12 23:02:00,58.0,38.0,-100.00,SE,125,4.0,10.0,48,0.00,,,0.00,0.000000,,2013-10-13 03:02:00,
2013-10-12 23:45:00,58.0,44.0,-100.00,SE,124,4.0,9.0,59,0.00,,,0.00,0.000000,,2013-10-13 03:45:00,
2013-10-12 23:54:00,58.0,44.0,-100.00,SE,124,4.0,9.0,59,0.00,,,0.00,0.000000,,2013-10-13 03:54:00,